Zurück zum Katalog

ERMIS2

AktivWissenschaftSSO
NORAD 68420·PAYLOAD·🇬🇷 Greece

Gestartet Mar 30, 2026 von Vandenberg Space Force Base

Loading…

Nächste Überflüge (nächste 24 Stunden)

TLE

AktuellSource: Space-Track

Epoche: Sep 14, 2026, 03:07 UTC

1 68420U 26067E   26257.12999321  .00008358  00000-0  37793-3 0  9995
2 68420  97.4567 214.6283 0001358  57.0194 303.1172 15.21178531 25467

Verfolge ERMIS2 in Echtzeit mit AllMySat

Download on the App Store